Location: Spring Mountain Observatory
(40.2501°N, 75.4333°W)
Time: 18:53:53
(UTC-04:00)

OTV 5 (USA 277) - Visible Passes

Search period start: 21 April 2018 00:00
Search period end: 01 May 2018 00:00
Orbit: 307 x 321 km, 54.5° (Epoch: 20 April)

Date Brightness Start Highest point End Pass type
(mag) Time Alt. Az. Time Alt. Az. Time Alt. Az.
21 Apr ? 20:55:12 10° WNW 20:56:50 15° NNW 20:58:29 10° N visible
28 Apr ? 22:33:03 10° N 22:33:11 11° N 22:33:11 11° N visible
29 Apr ? 22:45:53 10° NNW 22:46:04 11° NNW 22:46:04 11° NNW visible
